QPF
0.00 0.00 0.00 0.00 0.00 0.00 0.00 0.00 0.00 0.00 0.00 0.00 0.00 0.00 0.00 0.00 0.00 0.00 0.00 0.00 0.00 0.00 0.00 0.00 0.00 0.00 0.00 0.00 0.00 0.00 0.00 0.00 0.00 0.00 0.00 0.00 0.00 0.00 0.00 0.00 0.00 0.00 0.00 0.00 0.00
0.00 0.00 0.00 0.00 0.00 0.00 0.00 0.00 0.00 0.00 0.00 0.00 0.00 0.00 0.00 0.00 0.00 0.00 0.00 0.00 0.00 0.00 0.00 0.00 0.00 0.00 0.00 0.00 0.00 0.00 0.00 0.00 0.00 0.00 0.00 0.00 0.00 0.00 0.00 0.00 0.00 0.00 0.00 0.00 0.00
0.00 0.00 0.00 0.00 0.00 0.00 0.00 0.00 0.00 0.00 0.00 0.00 0.00 0.00 0.00 0.00 0.00 0.00 0.00 0.00 0.00 0.00 0.00 0.00 0.00 0.00 0.00 0.00 0.00 0.00 0.00 0.00 0.00 0.00 0.00 0.00 0.00 0.00 0.00 0.00 0.00 0.00 0.00 0.00 0.00
0.00 0.00 0.00 0.00 0.00 0.00 0.00 0.00 0.00 0.00 0.00 0.00 0.00 0.00 0.00 0.00 0.00 0.00 0.00 0.00 0.00 0.00 0.00 0.00 0.00 0.00 0.00 0.00 0.00 0.00 0.00 0.00 0.00 0.00 0.00 0.00 0.00 0.00 0.00 0.00 0.00 0.00 0.00 0.00 0.00
0.00 0.01 0.01 0.00 0.00 0.00 0.00 0.00 0.00 0.00 0.00 0.00 0.00 0.00 0.00 0.00 0.00 0.00 0.00 0.00 0.00 0.00 0.00 0.00 0.00 0.00 0.00 0.00 0.00 0.00 0.00 0.00 0.00 0.00 0.00 0.00 0.00 0.00 0.00 0.00 0.00 0.00 0.00 0.00 0.00
0.01 0.00 0.00 0.00 0.00 0.00 0.00 0.00 0.00 0.00 0.00 0.00 0.00 0.00 0.00 0.00 0.00 0.00 0.00 0.00 0.00 0.00 0.00 0.00 0.00 0.00 0.00 0.00 0.00 0.00 0.00 0.00 0.00 0.00 0.00 0.00 0.00 0.00 0.00 0.00 0.00 0.00 0.00 0.00 0.00
0.01 0.01 0.00 0.00 0.00 0.00 0.00 0.00 0.00 0.00 0.00 0.00 0.00 0.00 0.00 0.00 0.00 0.00 0.00 0.00 0.00 0.00 0.00 0.00 0.00 0.00 0.00 0.00 0.00 0.00 0.00 0.00 0.00 0.00 0.00 0.00 0.00 0.00 0.00 0.00 0.00 0.00 0.00 0.01 0.05
0.01 0.01 0.00 0.00 0.00 0.00 0.00 0.00 0.00 0.00 0.00 0.00 0.00 0.00 0.00 0.00 0.00 0.00 0.00 0.00 0.00 0.00 0.00 0.00 0.00 0.00 0.00 0.00 0.00 0.00 0.00 0.00 0.00 0.00 0.00 0.00 0.00 0.00 0.00 0.00 0.00 0.00 0.00 0.01 0.06
0.01 0.00 0.00 0.00 0.00 0.00 0.00 0.00 0.00 0.00 0.00 0.00 0.00 0.00 0.00 0.00 0.00 0.00 0.00 0.00 0.00 0.00 0.00 0.00 0.00 0.00 0.00 0.00 0.00 0.00 0.00 0.00 0.00 0.00 0.00 0.00 0.00 0.00 0.00 0.00 0.00 0.00 0.00 0.00 0.02
0.01 0.01 0.01 0.00 0.00 0.00 0.00 0.00 0.00 0.00 0.00 0.00 0.00 0.00 0.00 0.00 0.00 0.00 0.00 0.00 0.00 0.00 0.00 0.00 0.00 0.00 0.00 0.00 0.00 0.00 0.00 0.00 0.00 0.00 0.00 0.00 0.00 0.00 0.00 0.00 0.00 0.00 0.00 0.00 0.03
0.01 0.01 0.01 0.00 0.00 0.00 0.00 0.00 0.00 0.00 0.00 0.00 0.00 0.00 0.00 0.00 0.00 0.00 0.00 0.00 0.00 0.00 0.00 0.00 0.00 0.00 0.00 0.00 0.00 0.00 0.00 0.00 0.00 0.00 0.00 0.00 0.00 0.00 0.00 0.00 0.00 0.00 0.00 0.00 0.00
0.01 0.01 0.01 0.00 0.00 0.00 0.00 0.00 0.00 0.00 0.00 0.00 0.00 0.00 0.00 0.00 0.00 0.00 0.00 0.00 0.00 0.00 0.00 0.00 0.00 0.00 0.00 0.00 0.00 0.00 0.00 0.00 0.00 0.00 0.00 0.00 0.00 0.00 0.00 0.00 0.00 0.00 0.00 0.00 0.01
0.01 0.01 0.00 0.00 0.00 0.00 0.00 0.00 0.00 0.00 0.00 0.00 0.00 0.00 0.00 0.00 0.00 0.00 0.00 0.00 0.00 0.00 0.00 0.00 0.00 0.00 0.00 0.00 0.00 0.00 0.00 0.00 0.00 0.00 0.00 0.00 0.00 0.00 0.00 0.00 0.00 0.00 0.00 0.00 0.00
0.01 0.01 0.00 0.00 0.00 0.00 0.00 0.00 0.00 0.00 0.00 0.00 0.00 0.00 0.00 0.00 0.00 0.00 0.00 0.00 0.00 0.00 0.00 0.00 0.00 0.00 0.00 0.00 0.00 0.00 0.00 0.00 0.00 0.00 0.00 0.00 0.00 0.00 0.00 0.00 0.00 0.00 0.00 0.00 0.00
0.01 0.01 0.00 0.00 0.00 0.00 0.00 0.00 0.00 0.00 0.00 0.00 0.00 0.00 0.00 0.00 0.00 0.00 0.00 0.00 0.00 0.00 0.00 0.00 0.00 0.00 0.00 0.00 0.00 0.00 0.00 0.00 0.00 0.00 0.00 0.00 0.00 0.00 0.00 0.00 0.01 0.00 0.00 0.00 0.00
0.01 0.01 0.00 0.00 0.00 0.00 0.00 0.00 0.00 0.00 0.00 0.00 0.00 0.00 0.00 0.00 0.00 0.00 0.00 0.00 0.00 0.00 0.00 0.00 0.00 0.00 0.00 0.00 0.00 0.00 0.00 0.00 0.00 0.00 0.00 0.00 0.00 0.00 0.00 0.00 0.00 0.00 0.00 0.00 0.00
0.01 0.01 0.00 0.00 0.00 0.00 0.00 0.00 0.00 0.00 0.00 0.00 0.00 0.00 0.00 0.00 0.00 0.00 0.00 0.00 0.00 0.00 0.00 0.00 0.00 0.00 0.00 0.00 0.00 0.00 0.00 0.00 0.00 0.00 0.00 0.00 0.00 0.00 0.00 0.00 0.00 0.00 0.00 0.00 0.00
0.00 0.00 0.00 0.00 0.00 0.00 0.00 0.00 0.00 0.00 0.00 0.00 0.00 0.00 0.00 0.00 0.00 0.00 0.00 0.00 0.00 0.00 0.00 0.00 0.00 0.00 0.00 0.00 0.00 0.00 0.00 0.00 0.00 0.00 0.00 0.00 0.00 0.00 0.00 0.00 0.00 0.00 0.00 0.00 0.00
0.00 0.00 0.00 0.00 0.00 0.00 0.00 0.00 0.00 0.00 0.00 0.00 0.00 0.00 0.00 0.00 0.00 0.00 0.00 0.00 0.00 0.00 0.00 0.00 0.00 0.00 0.00 0.00 0.00 0.00 0.00 0.00 0.00 0.00 0.00 0.00 0.00 0.00 0.00 0.00 0.00 0.00 0.00 0.00 0.00
0.00 0.00 0.00 0.00 0.00 0.00 0.00 0.00 0.00 0.00 0.00 0.00 0.00 0.00 0.00 0.00 0.00 0.00 0.00 0.00 0.00 0.00 0.00 0.00 0.00 0.00 0.00 0.00 0.00 0.00 0.00 0.00 0.00 0.00 0.00 0.00 0.00 0.00 0.00 0.00 0.00 0.00 0.00 0.00 0.00
0.00 0.00 0.00 0.00 0.00 0.00 0.00 0.00 0.00 0.00 0.00 0.00 0.00 0.00 0.00 0.00 0.00 0.00 0.00 0.00 0.00 0.00 0.00 0.00 0.00 0.00 0.00 0.00 0.00 0.00 0.00 0.00 0.00 0.00 0.00 0.00 0.00 0.00 0.00 0.00 0.00 0.00 0.00 0.00 0.00
0.00 0.00 0.00 0.00 0.00 0.00 0.00 0.00 0.00 0.00 0.00 0.00 0.00 0.00 0.00 0.00 0.00 0.00 0.00 0.00 0.00 0.00 0.00 0.00 0.00 0.00 0.00 0.00 0.00 0.00 0.00 0.00 0.00 0.00 0.00 0.00 0.00 0.00 0.00 0.00 0.00 0.00 0.00 0.00 0.00
0.00 0.00 0.00 0.00 0.00 0.00 0.00 0.00 0.00 0.00 0.00 0.00 0.00 0.00 0.00 0.00 0.00 0.00 0.00 0.00 0.00 0.00 0.00 0.00 0.00 0.00 0.00 0.00 0.00 0.00 0.00 0.00 0.00 0.00 0.00 0.00 0.00 0.00 0.00 0.00 0.00 0.00 0.00 0.00 0.00
0.00 0.00 0.00 0.00 0.00 0.00 0.00 0.00 0.00 0.00 0.00 0.00 0.00 0.00 0.00 0.00 0.00 0.00 0.00 0.00 0.00 0.00 0.00 0.00 0.00 0.00 0.00 0.00 0.00 0.00 0.00 0.00 0.00 0.00 0.00 0.00 0.00 0.00 0.00 0.00 0.00 0.00 0.00 0.01 0.00
0.00 0.00 0.00 0.00 0.00 0.00 0.00 0.00 0.00 0.00 0.00 0.00 0.00 0.00 0.00 0.00 0.00 0.00 0.00 0.00 0.00 0.00 0.00 0.00 0.00 0.00 0.00 0.00 0.00 0.00 0.00 0.00 0.00 0.00 0.00 0.00 0.00 0.00 0.00 0.00 0.00 0.00 0.03 0.09 0.02
0.00 0.01 0.00 0.00 0.00 0.00 0.00 0.00 0.00 0.00 0.00 0.00 0.00 0.00 0.00 0.00 0.00 0.00 0.00 0.00 0.00 0.00 0.00 0.00 0.00 0.00 0.00 0.00 0.00 0.00 0.00 0.00 0.00 0.00 0.00 0.00 0.00 0.00 0.00 0.00 0.00 0.01 0.03 0.05 0.04
0.00 0.00 0.00 0.00 0.00 0.00 0.00 0.00 0.00 0.00 0.00 0.00 0.00 0.00 0.00 0.00 0.00 0.00 0.00 0.00 0.00 0.00 0.00 0.00 0.00 0.00 0.00 0.00 0.00 0.00 0.00 0.00 0.00 0.00 0.00 0.00 0.00 0.00 0.00 0.00 0.00 0.02 0.03 0.03 0.00
MSLP
1017.16 1016.87 1016.67 1016.40 1016.09 1015.79 1015.49 1015.25 1014.97 1014.72 1014.44 1014.06 1013.66 1013.19 1012.65 1012.14 1011.06 1010.54 1009.42 1007.25 1006.81 1006.89 1006.91 1006.68 1006.44 1006.73 1006.78 1007.10 1006.97 1007.19 1008.05 1008.12 1007.28 1006.94 1006.68 1007.12 1007.36 1007.85 1008.16 1008.91 1009.38 1009.39 1009.58 1009.93 1011.32
1017.13 1016.84 1016.58 1016.33 1016.06 1015.77 1015.46 1015.23 1014.97 1014.71 1014.41 1014.07 1013.65 1013.22 1012.68 1012.23 1011.48 1009.65 1006.81 1006.41 1006.29 1007.02 1006.98 1007.02 1006.81 1006.68 1006.73 1006.63 1006.54 1006.81 1007.52 1007.06 1006.10 1005.90 1006.22 1006.58 1006.76 1007.36 1008.07 1008.66 1009.32 1009.40 1009.69 1010.28 1011.27
1017.01 1016.69 1016.42 1016.19 1015.93 1015.66 1015.43 1015.17 1014.92 1014.67 1014.33 1013.96 1013.53 1013.10 1012.63 1012.30 1011.21 1007.94 1006.23 1006.06 1006.60 1006.93 1007.07 1007.14 1007.19 1007.14 1007.16 1006.76 1006.26 1006.21 1006.42 1005.96 1005.59 1005.32 1005.30 1005.86 1006.70 1006.97 1007.67 1008.62 1008.52 1008.81 1009.50 1010.17 1011.32
1016.88 1016.50 1016.21 1015.98 1015.76 1015.50 1015.24 1015.08 1014.83 1014.57 1014.23 1013.85 1013.41 1012.92 1012.43 1012.09 1010.07 1006.76 1006.07 1006.28 1006.80 1006.96 1007.06 1007.14 1007.33 1007.40 1007.64 1007.34 1006.52 1006.07 1005.49 1005.37 1005.06 1005.05 1005.31 1005.55 1006.23 1006.85 1007.16 1007.34 1007.33 1008.13 1008.92 1009.79 1010.99
1016.70 1016.35 1016.04 1015.78 1015.56 1015.33 1015.09 1014.88 1014.70 1014.43 1014.11 1013.78 1013.38 1012.90 1012.20 1011.32 1008.71 1006.13 1006.14 1006.59 1006.79 1006.97 1007.11 1007.37 1007.44 1007.63 1007.62 1007.20 1006.62 1005.85 1005.17 1004.90 1004.59 1004.76 1005.25 1005.50 1005.92 1006.65 1007.24 1007.28 1007.46 1008.30 1009.26 1009.63 1010.55
1016.58 1016.15 1015.79 1015.53 1015.31 1015.12 1014.91 1014.72 1014.50 1014.27 1013.99 1013.69 1013.34 1013.01 1012.40 1010.33 1006.65 1006.30 1006.29 1006.76 1006.86 1007.08 1007.14 1007.28 1007.22 1007.42 1007.64 1007.30 1006.94 1005.99 1005.38 1005.04 1004.64 1004.78 1005.14 1005.75 1006.52 1006.87 1007.30 1007.55 1008.00 1008.65 1009.34 1009.90 1010.33
1016.43 1016.00 1015.57 1015.24 1015.01 1014.84 1014.65 1014.46 1014.24 1014.07 1013.85 1013.56 1013.28 1013.02 1011.95 1008.25 1006.57 1006.59 1006.62 1006.67 1006.90 1007.02 1007.04 1006.94 1006.93 1007.38 1007.42 1007.10 1006.35 1005.80 1005.63 1005.11 1004.78 1004.68 1005.17 1005.94 1007.46 1007.15 1007.14 1007.81 1008.49 1008.98 1009.48 1010.23 1010.85
1016.20 1015.78 1015.34 1014.95 1014.72 1014.54 1014.41 1014.18 1013.95 1013.76 1013.57 1013.39 1013.17 1012.84 1010.68 1007.14 1006.87 1006.59 1006.24 1006.41 1006.39 1006.60 1006.79 1006.30 1006.68 1007.04 1007.29 1006.90 1006.54 1006.50 1006.33 1006.01 1004.56 1004.62 1004.81 1005.92 1006.83 1007.10 1007.34 1008.08 1008.81 1008.90 1009.44 1010.11 1010.37
1015.94 1015.54 1015.12 1014.78 1014.47 1014.28 1014.11 1013.81 1013.54 1013.34 1013.26 1013.20 1013.10 1012.46 1009.65 1006.88 1006.74 1005.78 1006.01 1006.28 1006.16 1006.16 1006.21 1006.16 1006.46 1007.41 1007.65 1007.89 1007.83 1007.84 1007.61 1006.88 1005.39 1004.79 1005.13 1006.03 1006.93 1007.01 1008.11 1008.98 1009.37 1009.20 1009.22 1009.69 1009.71
1015.67 1015.25 1014.84 1014.51 1014.24 1014.01 1013.69 1013.30 1013.03 1012.99 1013.00 1012.93 1012.49 1012.18 1008.74 1006.83 1006.04 1005.61 1005.73 1006.03 1006.23 1006.34 1006.47 1006.79 1007.81 1008.26 1008.84 1008.85 1009.15 1008.71 1008.11 1007.01 1006.54 1005.33 1005.35 1006.01 1006.76 1007.80 1008.73 1009.00 1009.27 1009.31 1009.42 1009.33 1008.95
1015.41 1014.95 1014.57 1014.28 1014.04 1013.85 1013.43 1012.98 1013.22 1012.92 1012.32 1010.91 1010.29 1009.35 1007.72 1006.52 1005.83 1005.51 1005.65 1006.08 1006.47 1006.96 1007.75 1008.03 1008.73 1008.91 1008.77 1009.00 1008.71 1008.53 1008.24 1007.63 1006.32 1005.55 1005.81 1006.61 1007.30 1008.40 1008.83 1009.36 1009.38 1009.33 1009.51 1009.31 1008.96
1015.17 1014.66 1014.27 1014.01 1013.85 1013.81 1013.81 1012.87 1011.01 1010.40 1010.33 1009.21 1009.06 1008.55 1007.38 1006.80 1006.23 1005.80 1005.74 1006.60 1006.99 1007.67 1008.14 1008.74 1008.63 1007.70 1008.10 1008.31 1008.44 1008.19 1008.13 1007.27 1006.14 1005.60 1006.05 1007.13 1007.82 1008.73 1009.05 1009.47 1009.65 1009.62 1009.70 1009.82 1009.93
1014.93 1014.47 1014.12 1013.88 1013.85 1013.92 1013.33 1011.72 1010.34 1009.89 1010.05 1008.38 1008.03 1007.49 1006.62 1006.56 1006.06 1005.62 1005.82 1006.39 1007.01 1007.64 1008.09 1008.47 1007.31 1007.22 1007.45 1007.36 1007.77 1007.45 1007.36 1006.65 1006.53 1006.21 1006.72 1007.45 1008.66 1009.80 1010.17 1010.06 1009.55 1009.12 1009.33 1009.78 1010.14
1014.65 1014.22 1014.00 1013.75 1014.29 1013.27 1012.19 1010.32 1010.01 1010.33 1010.31 1007.95 1007.13 1005.64 1005.69 1005.70 1005.72 1005.01 1005.37 1006.10 1006.90 1007.32 1007.98 1008.01 1007.03 1006.85 1006.93 1006.92 1006.76 1006.77 1006.00 1006.14 1006.34 1007.16 1007.53 1008.00 1009.80 1010.44 1010.88 1010.65 1010.20 1009.81 1009.25 1009.26 1009.46
1014.31 1013.95 1013.80 1013.87 1013.70 1012.74 1010.50 1010.28 1009.97 1009.91 1009.22 1006.77 1005.96 1004.60 1004.85 1005.43 1005.23 1005.03 1005.06 1005.70 1006.51 1007.06 1007.62 1007.37 1006.68 1006.33 1006.18 1005.68 1005.62 1005.60 1005.57 1006.40 1006.75 1007.59 1008.16 1009.04 1009.88 1010.17 1010.85 1010.84 1010.43 1009.90 1009.33 1008.90 1008.31
1013.98 1013.71 1013.64 1013.75 1013.63 1011.21 1010.23 1010.12 1010.06 1010.06 1007.83 1005.95 1005.01 1004.79 1005.22 1005.32 1005.24 1005.14 1005.27 1005.56 1006.14 1006.95 1007.25 1006.74 1005.81 1005.62 1004.88 1004.46 1004.66 1005.12 1005.93 1007.05 1008.10 1008.82 1009.95 1010.22 1010.32 1010.70 1010.73 1010.55 1009.99 1009.17 1009.19 1009.00 1007.88
1013.41 1013.19 1013.45 1012.54 1011.53 1010.42 1010.07 1010.17 1010.34 1009.42 1006.80 1005.69 1005.12 1005.01 1005.27 1005.60 1005.41 1005.40 1005.73 1006.18 1006.76 1007.42 1007.69 1006.67 1005.64 1004.63 1004.08 1004.36 1004.82 1005.68 1007.29 1008.70 1009.94 1010.75 1011.01 1010.86 1010.74 1010.33 1010.35 1010.30 1009.78 1009.12 1008.57 1008.73 1007.98
1012.53 1012.40 1012.42 1011.51 1010.83 1010.63 1010.06 1010.41 1009.99 1007.80 1006.45 1005.02 1004.84 1005.26 1005.53 1005.63 1005.62 1005.75 1006.19 1006.85 1007.00 1007.40 1007.88 1007.28 1005.74 1004.44 1003.86 1003.86 1004.61 1005.96 1007.34 1009.21 1010.56 1011.81 1011.52 1011.17 1011.23 1010.10 1010.17 1010.04 1009.37 1008.62 1008.45 1008.45 1008.35
1012.58 1012.57 1012.24 1009.96 1010.36 1011.38 1010.94 1010.89 1008.94 1007.35 1005.57 1004.92 1005.02 1005.52 1005.76 1005.50 1005.65 1005.88 1006.47 1006.87 1006.73 1006.80 1007.31 1007.16 1006.07 1004.42 1003.68 1003.66 1004.30 1006.06 1007.33 1008.25 1010.11 1011.72 1012.14 1012.12 1011.32 1009.82 1009.80 1009.80 1008.81 1008.09 1007.78 1008.57 1007.80
1012.50 1012.07 1010.60 1009.16 1009.60 1010.40 1010.95 1010.39 1008.45 1006.61 1005.21 1004.70 1004.85 1005.10 1005.73 1005.63 1005.87 1006.09 1006.29 1005.44 1005.73 1005.65 1005.68 1006.68 1006.56 1005.11 1004.32 1004.07 1004.68 1005.39 1007.01 1008.52 1009.98 1011.66 1012.41 1012.12 1011.65 1010.49 1009.60 1009.80 1009.01 1008.05 1007.62 1007.66 1007.77
1012.23 1011.41 1009.46 1008.97 1009.31 1010.51 1011.07 1009.90 1007.62 1005.73 1005.01 1004.48 1004.14 1004.40 1005.02 1005.20 1005.37 1005.95 1005.77 1004.68 1004.52 1005.07 1005.58 1006.45 1007.18 1006.34 1005.41 1005.68 1005.89 1006.26 1007.30 1008.69 1010.28 1011.45 1012.19 1012.27 1011.21 1008.98 1009.12 1009.57 1009.15 1008.60 1008.35 1008.17 1007.99
1012.25 1011.19 1009.45 1009.45 1010.15 1010.92 1010.54 1008.78 1006.86 1004.85 1003.85 1003.54 1003.61 1003.63 1004.03 1004.61 1005.05 1005.34 1004.99 1004.68 1004.05 1004.34 1005.81 1006.41 1007.51 1007.55 1007.20 1006.32 1006.47 1006.52 1007.36 1008.68 1010.48 1011.72 1011.97 1011.68 1010.08 1009.06 1009.10 1009.29 1009.79 1009.37 1009.01 1008.70 1008.67
1012.64 1011.40 1009.75 1009.25 1010.29 1010.67 1009.57 1008.33 1006.97 1005.14 1003.85 1003.23 1003.14 1003.08 1003.55 1004.43 1004.82 1004.83 1004.43 1004.40 1004.32 1004.81 1005.41 1006.23 1007.77 1008.45 1007.77 1007.54 1007.03 1007.11 1007.68 1008.36 1009.83 1010.74 1011.50 1011.50 1010.06 1009.66 1009.56 1009.83 1009.85 1009.88 1009.34 1008.95 1008.58
1012.90 1011.97 1010.75 1010.09 1010.34 1010.18 1009.62 1008.16 1006.65 1005.23 1004.24 1003.76 1003.97 1003.48 1003.65 1004.56 1004.68 1005.19 1005.01 1004.80 1004.87 1005.45 1005.76 1006.10 1008.69 1009.06 1009.00 1008.59 1008.18 1007.83 1007.74 1008.12 1009.09 1010.33 1010.78 1010.51 1009.79 1010.13 1010.09 1010.11 1010.25 1010.15 1009.31 1009.28 1008.85
1013.16 1013.22 1012.42 1011.35 1010.62 1010.28 1009.60 1008.15 1006.94 1006.17 1004.73 1004.61 1004.50 1004.56 1004.31 1005.28 1005.64 1005.84 1005.63 1005.44 1005.43 1005.76 1006.21 1007.18 1009.25 1009.31 1009.07 1008.72 1008.36 1007.99 1007.85 1007.89 1008.54 1008.81 1009.65 1009.37 1009.52 1009.38 1009.62 1010.21 1010.22 1009.92 1009.56 1009.41 1009.46
1014.11 1013.95 1012.67 1011.82 1010.76 1010.26 1009.19 1007.81 1006.90 1006.28 1005.73 1005.68 1005.71 1005.57 1004.93 1005.67 1005.95 1006.00 1005.79 1005.99 1006.26 1006.42 1007.32 1008.51 1009.58 1009.84 1009.56 1008.71 1008.25 1008.01 1007.79 1007.83 1008.25 1008.81 1009.14 1009.25 1009.37 1009.54 1009.82 1010.10 1010.05 1010.02 1009.86 1009.87 1009.81
1014.52 1013.95 1013.56 1012.25 1011.21 1010.14 1009.29 1007.72 1007.03 1006.38 1006.12 1005.88 1005.97 1006.04 1006.11 1006.07 1005.91 1005.92 1006.09 1006.25 1006.54 1007.14 1008.20 1009.13 1010.00 1010.89 1010.41 1009.45 1008.64 1008.46 1008.10 1008.10 1008.67 1009.05 1009.29 1009.45 1009.48 1009.97 1010.31 1010.45 1010.65 1010.79 1010.64 1010.40 1010.21
Thickness
5740 5743 5745 5748 5750 5753 5756 5759 5762 5765 5769 5774 5779 5785 5792 5798 5809 5814 5814 5839 5845 5848 5849 5848 5848 5843 5843 5830 5835 5834 5784 5773 5792 5792 5803 5818 5810 5823 5824 5808 5807 5813 5813 5814 5805
5738 5741 5744 5747 5749 5752 5755 5757 5760 5763 5767 5771 5777 5783 5790 5796 5803 5809 5845 5851 5852 5846 5840 5833 5828 5834 5825 5830 5832 5814 5780 5792 5819 5822 5812 5820 5818 5819 5812 5803 5801 5805 5814 5814 5804
5737 5741 5743 5746 5749 5752 5754 5757 5759 5762 5766 5770 5775 5781 5788 5793 5798 5817 5850 5854 5849 5846 5843 5839 5833 5827 5816 5824 5829 5820 5796 5818 5827 5832 5835 5824 5819 5829 5813 5796 5807 5803 5805 5808 5800
5736 5740 5743 5745 5748 5751 5754 5756 5759 5762 5765 5769 5774 5780 5787 5792 5774 5834 5851 5850 5847 5845 5840 5833 5825 5815 5807 5804 5824 5813 5831 5830 5834 5836 5833 5824 5829 5817 5819 5819 5829 5822 5818 5811 5800
5736 5739 5742 5745 5748 5751 5754 5757 5759 5761 5765 5768 5772 5778 5788 5786 5798 5846 5849 5846 5845 5842 5832 5826 5819 5815 5804 5811 5816 5819 5832 5836 5841 5837 5833 5834 5825 5819 5818 5825 5830 5822 5812 5808 5801
5735 5739 5742 5745 5749 5751 5754 5757 5759 5762 5765 5768 5771 5775 5781 5773 5836 5843 5846 5842 5840 5837 5833 5832 5826 5826 5813 5811 5812 5827 5830 5833 5839 5834 5834 5822 5819 5822 5821 5825 5821 5815 5805 5803 5802
5735 5739 5743 5747 5750 5753 5755 5758 5761 5764 5766 5769 5771 5775 5777 5795 5837 5840 5841 5841 5843 5840 5832 5839 5839 5825 5823 5813 5832 5832 5818 5826 5832 5834 5827 5825 5802 5807 5825 5821 5809 5807 5802 5799 5798
5735 5740 5744 5748 5751 5754 5757 5760 5763 5766 5769 5771 5774 5776 5778 5830 5835 5839 5845 5841 5850 5848 5842 5848 5845 5831 5824 5831 5822 5812 5811 5793 5830 5833 5836 5823 5787 5813 5821 5813 5801 5803 5801 5795 5792
5736 5740 5745 5749 5753 5756 5760 5764 5768 5771 5773 5775 5777 5779 5783 5834 5827 5846 5847 5836 5844 5848 5848 5853 5844 5820 5818 5799 5784 5788 5773 5786 5809 5833 5829 5819 5797 5816 5814 5804 5797 5800 5801 5795 5795
5736 5742 5747 5751 5755 5760 5765 5769 5773 5775 5777 5779 5783 5776 5807 5817 5835 5845 5851 5847 5836 5837 5832 5826 5808 5797 5787 5779 5754 5772 5776 5790 5786 5821 5823 5811 5807 5806 5803 5802 5800 5796 5793 5795 5800
5735 5742 5748 5753 5757 5761 5768 5772 5769 5769 5777 5784 5792 5798 5813 5832 5844 5840 5847 5838 5833 5821 5795 5805 5786 5772 5786 5789 5794 5791 5783 5777 5799 5825 5814 5802 5803 5796 5797 5796 5794 5792 5792 5795 5799
5734 5742 5748 5754 5758 5761 5764 5774 5786 5794 5778 5800 5802 5803 5819 5828 5815 5831 5844 5816 5810 5789 5800 5787 5774 5804 5804 5800 5793 5787 5776 5781 5806 5826 5815 5796 5796 5797 5798 5794 5794 5794 5793 5789 5788
5732 5740 5747 5753 5757 5759 5766 5781 5796 5800 5775 5798 5804 5807 5817 5823 5814 5818 5831 5818 5806 5795 5792 5775 5798 5813 5806 5799 5791 5788 5784 5796 5797 5811 5807 5799 5783 5778 5780 5787 5794 5801 5800 5797 5788
5730 5739 5745 5751 5753 5763 5773 5793 5797 5796 5750 5783 5799 5816 5823 5825 5810 5837 5837 5822 5806 5791 5791 5786 5808 5807 5800 5790 5794 5779 5812 5813 5809 5791 5768 5800 5747 5766 5766 5773 5782 5789 5796 5795 5793
5728 5737 5744 5748 5753 5764 5787 5791 5796 5791 5728 5797 5800 5838 5827 5811 5819 5824 5839 5822 5795 5798 5796 5785 5800 5800 5795 5801 5810 5800 5823 5812 5811 5790 5786 5779 5755 5772 5767 5764 5773 5782 5792 5798 5803
5726 5735 5742 5746 5750 5774 5787 5790 5787 5743 5735 5788 5805 5801 5800 5808 5811 5820 5819 5828 5821 5800 5799 5798 5822 5817 5811 5827 5823 5825 5811 5793 5780 5769 5744 5761 5767 5759 5765 5775 5777 5789 5792 5795 5805
5727 5736 5740 5752 5766 5777 5785 5781 5737 5725 5787 5783 5786 5796 5792 5789 5799 5804 5797 5791 5778 5768 5770 5793 5804 5823 5831 5813 5817 5800 5776 5737 5742 5730 5735 5754 5761 5767 5779 5783 5786 5790 5796 5794 5803
5732 5739 5746 5758 5767 5774 5781 5754 5731 5764 5770 5800 5794 5788 5779 5789 5792 5794 5787 5775 5791 5783 5762 5761 5766 5816 5831 5818 5800 5800 5781 5736 5735 5723 5738 5764 5751 5770 5783 5787 5792 5799 5799 5801 5801
5730 5736 5744 5766 5769 5766 5760 5724 5741 5760 5791 5789 5788 5773 5775 5791 5791 5791 5778 5773 5787 5788 5768 5758 5773 5822 5829 5831 5822 5794 5777 5789 5745 5741 5735 5735 5759 5783 5784 5784 5795 5804 5806 5793 5800
5730 5740 5753 5770 5772 5765 5741 5729 5754 5781 5799 5798 5769 5777 5762 5779 5780 5779 5773 5800 5798 5805 5813 5795 5768 5810 5821 5830 5822 5808 5802 5766 5751 5737 5737 5735 5743 5751 5776 5777 5789 5801 5806 5803 5804
5733 5740 5761 5770 5771 5747 5724 5733 5765 5794 5802 5791 5784 5778 5777 5782 5783 5772 5783 5808 5815 5811 5814 5800 5777 5788 5809 5798 5792 5789 5778 5767 5756 5741 5723 5718 5735 5783 5784 5780 5787 5796 5801 5797 5800
5727 5732 5759 5763 5734 5722 5730 5751 5780 5796 5811 5802 5802 5801 5791 5791 5786 5784 5785 5796 5828 5819 5798 5802 5771 5767 5786 5808 5805 5805 5791 5767 5739 5744 5731 5728 5745 5784 5787 5785 5781 5787 5790 5790 5792
5724 5728 5753 5759 5719 5723 5743 5759 5776 5786 5798 5805 5806 5813 5811 5796 5785 5797 5803 5815 5823 5814 5802 5803 5765 5744 5760 5774 5791 5783 5785 5781 5753 5742 5732 5729 5746 5778 5781 5778 5780 5780 5784 5787 5793
5722 5722 5734 5742 5734 5739 5740 5749 5764 5792 5795 5802 5795 5809 5800 5787 5789 5786 5794 5806 5813 5807 5804 5802 5756 5750 5732 5753 5767 5770 5777 5780 5762 5734 5739 5742 5769 5763 5767 5769 5774 5773 5784 5784 5789
5717 5713 5720 5720 5734 5739 5743 5753 5756 5760 5788 5789 5786 5788 5794 5778 5778 5775 5784 5793 5804 5802 5803 5791 5756 5763 5763 5764 5770 5773 5771 5774 5767 5766 5755 5766 5762 5772 5768 5765 5769 5776 5780 5780 5777
5705 5703 5713 5718 5727 5734 5733 5751 5756 5765 5774 5772 5768 5777 5781 5771 5778 5776 5785 5785 5785 5796 5789 5775 5754 5761 5760 5769 5770 5767 5771 5777 5774 5769 5765 5760 5765 5769 5771 5770 5766 5768 5772 5771 5770
5701 5707 5706 5715 5722 5732 5736 5757 5761 5770 5778 5783 5777 5770 5769 5779 5789 5795 5794 5791 5794 5785 5770 5764 5745 5734 5735 5753 5759 5740 5763 5767 5762 5762 5764 5756 5763 5762 5759 5760 5758 5754 5757 5759 5761